Location: Casone le Fosse
(44.6547°N, 12.1103°E)
Time: 12:03:56
(UTC+00:00)

Cosmos 2360 - Pass Details

Date: 29 October 2020
Orbit: 848 x 855 km, 70.8° (Epoch: 27 November)

Event Time Altitude Azimuth Distance (km) Brightness Sun altitude
Rises 17:51:56 0° 200° (SSW) 3,410 7.6 -19.7°
Reaches altitude 10° 17:54:22 10° 200° (SSW) 2,478 6.9 -20.1°
Maximum altitude 18:00:04 81° 114° (ESE) 869 4.1 -21.1°
Enters shadow 18:04:35 17° 28° (NNE) 2,035 5.9 -21.9°
